Temperature
14 14 14 14 14 14 14 15 14 15 14 14 14 14 14 14 14 14 14 15 15 15 15 15 15 15 15 16 16 16 16 16 15 15 15 15 15 15
13 14 14 14 14 14 14 14 14 14 14 14 14 13 13 13 14 14 14 14 14 14 14 14 14 15 15 15 15 15 15 15 15 15 15 15 15 15
13 13 13 13 14 14 14 14 14 14 14 13 13 13 13 13 13 13 13 13 13 13 13 14 14 14 14 14 14 14 14 14 14 14 14 14 14 14
13 13 13 13 13 13 13 14 14 14 13 13 12 12 12 12 12 12 12 12 12 13 13 13 13 13 13 13 13 13 13 13 13 13 14 14 14 14
12 12 13 13 13 13 13 13 13 13 13 13 12 12 12 12 12 12 12 12 12 12 12 12 12 12 12 12 12 13 13 13 13 13 13 13 13 13
12 12 12 12 12 12 12 12 12 12 12 12 12 11 11 11 12 12 11 11 11 11 11 11 11 11 12 12 12 12 12 12 12 12 12 12 13 13
12 12 12 12 12 12 12 12 12 12 12 12 11 11 11 11 12 12 12 11 11 11 11 11 11 11 11 11 11 11 12 12 12 12 12 12 12 12
11 11 11 11 11 11 11 11 11 11 11 11 11 11 11 11 11 11 12 12 11 11 11 11 11 10 10 10 11 11 11 11 11 11 11 11 12 12
11 11 11 11 11 11 11 11 11 11 11 11 11 11 10 10 11 11 11 11 11 10 11 11 11 10 10 10 10 10 10 11 11 11 11 11 11 11
10 10 11 11 10 11 10 10 10 10 10 10 10 10 10 10 10 10 10 10 10 10 10 11 10 10 10 9 9 10 10 10 10 10 10 11 11 11
10 10 10 10 10 10 10 10 10 10 10 10 10 10 10 10 10 10 10 11 11 10 10 10 10 10 10 9 9 9 9 9 10 10 10 10 10 10
10 10 10 10 10 10 10 10 10 9 9 9 9 9 9 9 9 10 11 11 11 10 9 10 10 10 10 9 9 9 9 9 9 9 9 9 9 9
10 10 10 10 10 10 10 10 9 9 9 9 9 9 9 9 9 9 9 10 10 10 9 9 10 10 11 10 9 9 8 8 8 8 8 8 9 9
10 10 10 10 10 9 9 10 9 9 9 9 9 9 9 9 8 8 8 8 8 8 8 8 9 9 10 10 9 9 8 8 8 8 7 7 8 8
10 10 10 10 9 9 9 9 9 10 10 10 10 9 9 8 8 8 8 8 7 8 7 7 8 8 9 9 9 9 9 8 8 7 7 7 7 7
9 10 9 9 9 9 9 9 9 10 10 10 9 9 8 8 9 9 9 9 8 8 7 7 7 7 8 8 8 8 8 8 7 7 7 7 7 6
9 9 9 9 9 9 9 9 10 9 10 9 9 9 9 9 9 9 9 9 9 9 8 7 7 7 7 8 8 8 8 8 7 7 7 7 7 6
9 9 10 10 10 10 10 10 10 10 10 9 9 9 9 9 9 9 9 10 9 9 9 9 9 9 8 7 7 7 7 7 7 7 7 7 7 6
10 10 10 10 11 10 10 10 10 10 9 10 10 10 10 10 9 9 9 9 9 9 9 8 9 9 10 10 7 7 6 6 7 7 7 7 7 6
10 11 11 11 11 11 11 11 10 10 10 10 10 10 10 10 10 10 10 10 9 9 9 9 8 8 8 8 8 7 6 6 6 6 6 7 7 6
11 11 11 11 11 11 11 11 10 10 10 10 10 10 10 10 10 10 10 9 9 10 9 9 8 7 7 7 8 8 7 6 6 5 5 6 6 7
11 11 11 11 11 11 11 10 10 10 10 10 10 10 10 10 10 10 10 10 10 10 9 9 7 7 8 8 8 8 8 7 6 6 5 5 5 5
11 11 11 11 11 11 11 11 11 10 10 10 10 10 10 10 10 10 10 10 10 10 9 9 9 8 8 8 8 8 8 7 7 7 6 5 5 5
Wind_Speed
13 13 11 11 10 11 11 11 9 7 6 5 4 3 3 5 5 6 8 11 11 11 11 11 11 11 11 11 11 9 7 6 6 7 9 9 9 11
10 11 10 9 9 9 10 9 9 7 4 3 3 5 4 6 6 9 11 14 13 12 12 13 14 14 14 14 15 14 14 13 12 10 9 8 6 4
10 10 9 9 7 7 7 7 7 6 5 4 4 5 6 7 7 8 9 9 11 14 14 15 15 15 16 15 16 15 15 14 13 11 9 8 6 4
9 7 7 5 5 4 4 5 5 5 8 9 6 6 6 8 8 7 7 9 11 14 15 15 16 16 15 15 15 15 14 14 13 11 10 8 6 4
6 5 4 3 3 3 3 4 4 6 8 9 7 6 6 7 8 8 9 7 9 13 15 16 16 16 15 15 15 14 13 13 12 10 9 7 6 4
3 2 1 2 3 5 5 6 7 8 9 10 9 7 6 7 7 8 8 7 7 9 10 12 14 15 15 15 14 13 12 11 10 9 8 7 6 5
0 1 3 5 5 5 6 8 9 9 9 9 9 7 6 6 6 6 8 8 7 6 7 7 8 8 10 12 13 12 11 11 10 8 7 7 6 7
3 4 6 8 10 11 11 10 9 10 9 8 8 8 7 7 6 6 7 7 7 4 5 6 6 7 7 10 11 11 11 10 10 9 8 8 8 8
5 6 6 8 9 11 13 14 13 12 8 7 10 9 9 7 6 7 6 6 7 4 4 6 6 7 7 11 10 10 10 10 10 10 10 10 9 9
6 8 9 9 10 12 13 13 12 11 9 9 10 9 9 7 6 8 9 9 8 5 2 5 5 6 6 8 10 9 9 9 10 11 12 12 12 11
8 9 10 11 11 12 14 14 13 11 14 16 14 12 12 8 3 6 7 7 8 7 3 3 5 5 5 6 7 8 7 7 7 9 12 14 15 13
8 9 10 12 12 10 13 14 14 13 13 13 11 11 10 8 6 4 4 5 7 7 4 2 4 3 5 5 5 4 4 6 6 8 10 12 15 10
10 10 10 12 10 7 9 11 13 13 12 12 11 10 9 8 8 8 7 5 6 7 5 3 4 3 3 4 4 5 5 6 5 5 7 9 10 10
11 10 11 12 10 7 8 13 13 11 10 10 10 9 9 9 9 10 10 10 10 9 7 5 5 4 4 4 4 4 5 6 6 6 6 5 5 5
9 14 16 15 13 9 13 14 11 9 9 9 9 9 9 9 9 9 10 9 10 9 9 7 6 5 5 5 5 5 4 5 6 6 6 6 7 8
12 15 16 12 10 13 13 11 9 8 9 9 10 10 9 8 7 8 8 8 8 9 8 8 7 6 6 6 5 6 6 6 7 7 6 5 6 7
15 14 13 13 13 12 12 10 9 9 9 10 10 9 9 8 8 7 6 6 7 7 7 6 6 6 6 6 6 6 6 6 6 7 6 5 6 7
17 15 15 14 14 13 13 11 10 10 10 10 10 9 9 9 8 7 6 7 7 6 6 4 3 4 6 6 6 6 6 6 6 6 7 6 6 7
15 14 14 14 14 13 13 12 11 11 10 10 10 9 9 9 8 7 7 6 6 6 5 4 3 3 2 3 4 3 6 6 7 7 6 6 6 7
14 14 14 14 13 13 13 12 12 12 11 10 10 9 9 9 8 8 7 6 6 5 5 4 4 4 4 4 3 2 3 5 7 7 8 6 5 2
14 14 14 14 13 13 13 12 13 12 12 11 10 10 9 9 8 7 7 5 3 4 4 4 4 1 3 3 3 2 2 4 0 4 7 8 8 7
14 14 14 14 14 13 13 13 13 13 13 11 11 10 9 8 8 8 7 6 4 3 3 4 4 3 2 3 4 4 3 1 5 7 2 2 7 8
15 14 14 15 14 13 13 14 15 13 13 12 11 10 10 8 7 7 6 5 4 3 2 2 2 2 2 3 4 4 5 6 5 3 4 9 8 8
Wind_Direction
272 268 261 257 250 245 242 235 228 220 206 184 170 156 150 125 131 124 105 92 88 85 84 84 83 79 74 71 71 77 94 112 138 167 179 188 203 217
273 269 265 259 252 246 238 230 226 223 205 169 148 144 136 127 112 109 104 99 85 85 85 84 82 80 78 76 76 76 79 83 86 91 104 114 121 140
275 270 265 258 250 243 232 221 213 201 175 143 131 123 123 117 114 115 115 105 92 85 87 86 84 82 80 78 77 77 76 78 80 81 85 89 93 100
277 274 268 257 239 229 214 202 188 175 159 144 137 130 125 120 117 115 109 103 100 93 92 89 87 85 83 80 78 76 75 75 75 74 72 72 70 62
284 275 265 243 204 179 167 154 147 146 142 139 136 129 127 126 125 115 108 109 108 112 103 95 91 89 85 82 78 75 73 71 70 67 64 59 51 35
291 286 282 139 146 139 129 126 125 125 128 130 131 133 132 139 139 135 125 114 106 108 100 105 106 100 92 85 78 73 69 66 63 58 51 42 29 12
117 86 85 94 91 109 122 125 127 127 129 129 130 133 136 146 142 137 126 121 108 108 120 120 123 112 105 93 79 70 65 60 55 46 34 20 4 351
136 114 110 110 97 91 95 103 115 128 129 131 131 127 127 129 127 139 142 142 122 102 111 106 105 98 89 81 74 69 62 54 46 37 26 12 358 345
145 134 127 119 123 116 103 95 85 82 101 121 124 126 126 127 135 128 110 107 97 108 126 113 111 105 102 88 84 71 60 50 41 31 19 8 355 340
143 137 132 133 130 128 122 112 104 91 91 100 105 104 105 103 107 112 118 120 116 97 102 114 115 115 111 104 97 81 66 54 43 32 22 10 353 334
146 141 139 134 125 130 126 119 111 100 76 75 78 84 72 59 65 145 150 145 124 101 83 106 116 122 114 108 119 125 104 78 59 45 33 19 358 333
147 142 136 135 138 140 134 130 126 123 120 113 107 114 106 90 53 75 125 132 129 109 76 83 111 137 126 100 77 83 106 120 113 83 56 35 10 358
157 156 143 134 142 143 148 139 134 136 134 130 124 119 113 105 92 74 52 64 92 93 83 83 93 98 99 109 87 58 41 33 42 80 84 62 37 18
163 154 140 140 141 145 137 128 141 154 144 140 133 127 119 106 94 86 76 72 73 80 59 54 74 56 73 82 70 54 52 36 22 23 26 58 61 61
152 126 133 140 139 131 131 144 165 161 146 142 133 124 114 111 114 113 108 104 96 86 75 52 66 68 61 63 55 40 33 39 24 15 18 22 19 16
132 125 133 151 145 128 147 168 174 151 147 138 131 128 130 139 137 133 132 132 120 108 93 77 60 50 66 62 53 47 34 24 18 13 1 12 23 21
148 149 154 155 155 158 165 164 152 148 148 140 140 144 143 136 127 121 123 124 117 116 120 122 117 99 70 40 45 36 26 21 21 7 346 4 21 20
160 162 163 166 165 164 163 160 159 157 153 151 151 149 144 139 135 135 133 120 111 102 94 91 113 150 148 101 38 19 16 11 6 2 353 356 8 16
171 166 167 168 166 165 164 163 160 153 155 156 153 149 145 143 141 137 131 123 115 106 96 80 58 34 40 78 110 52 11 357 351 357 359 354 357 7
178 170 170 169 168 167 165 163 156 154 162 158 154 153 152 148 145 142 134 127 123 121 114 95 67 42 30 16 9 91 106 3 354 351 348 342 347 334
182 173 171 170 169 168 164 162 160 161 162 161 158 159 158 155 150 142 128 124 143 127 113 96 81 249 269 280 303 25 87 136 51 336 341 340 344 344
183 176 172 170 170 168 166 166 164 163 164 171 163 167 166 162 156 155 151 159 156 130 119 116 150 218 267 326 327 334 338 300 200 194 229 326 346 344
183 177 173 174 172 169 171 173 171 169 173 175 169 173 174 173 172 170 170 175 167 163 177 180 186 216 281 297 305 316 321 312 311 274 212 183 200 230
Height
1445 1443 1442 1441 1442 1443 1444 1446 1449 1449 1451 1453 1455 1457 1459 1461 1462 1464 1465 1466 1467 1468 1469 1470 1471 1472 1473 1474 1475 1476 1478 1481 1483 1486 1489 1491 1495 1498
1440 1438 1436 1436 1436 1437 1438 1440 1443 1445 1447 1450 1452 1454 1457 1459 1461 1463 1464 1465 1466 1467 1468 1468 1469 1470 1471 1472 1472 1474 1475 1477 1479 1482 1484 1487 1490 1493
1435 1433 1431 1431 1431 1432 1433 1435 1438 1441 1444 1447 1450 1452 1455 1457 1459 1462 1463 1464 1465 1466 1467 1468 1469 1469 1470 1471 1472 1473 1474 1475 1477 1479 1481 1483 1486 1489
1431 1429 1428 1427 1427 1428 1429 1431 1434 1437 1440 1444 1448 1451 1454 1456 1459 1461 1463 1465 1465 1466 1467 1468 1469 1470 1470 1471 1472 1472 1473 1474 1476 1477 1479 1481 1483 1484
1428 1426 1425 1425 1425 1426 1427 1429 1431 1434 1438 1442 1446 1450 1453 1456 1459 1461 1463 1465 1466 1467 1468 1469 1470 1470 1471 1472 1472 1473 1473 1474 1475 1476 1477 1478 1480 1481
1425 1424 1423 1423 1424 1424 1426 1428 1430 1433 1437 1441 1445 1450 1453 1456 1459 1462 1464 1466 1467 1469 1469 1470 1470 1471 1472 1472 1473 1473 1473 1474 1474 1475 1476 1476 1477 1478
1424 1423 1423 1423 1424 1425 1427 1429 1431 1434 1438 1441 1445 1450 1453 1457 1460 1462 1464 1466 1468 1470 1471 1472 1472 1473 1473 1473 1473 1473 1473 1474 1474 1474 1474 1475 1475 1475
1423 1423 1423 1424 1425 1427 1429 1431 1434 1437 1440 1443 1447 1450 1453 1457 1459 1462 1464 1467 1469 1471 1472 1473 1474 1474 1474 1473 1473 1474 1474 1473 1473 1473 1473 1473 1472 1472
1422 1422 1424 1425 1427 1429 1431 1434 1437 1440 1443 1446 1449 1452 1455 1457 1460 1462 1464 1467 1468 1470 1472 1473 1474 1474 1474 1473 1474 1474 1473 1473 1472 1472 1471 1470 1470 1469
1422 1423 1424 1426 1429 1431 1434 1436 1439 1443 1446 1448 1450 1453 1455 1458 1460 1463 1464 1466 1468 1470 1472 1474 1474 1475 1475 1474 1474 1473 1473 1472 1471 1470 1469 1468 1467 1466
1421 1423 1425 1428 1430 1433 1436 1438 1441 1445 1448 1450 1452 1454 1456 1458 1461 1464 1466 1468 1469 1471 1472 1473 1474 1475 1475 1475 1474 1473 1473 1472 1470 1469 1468 1466 1465 1463
1421 1423 1426 1429 1432 1436 1438 1441 1443 1447 1450 1452 1455 1457 1459 1460 1462 1464 1467 1468 1469 1471 1471 1473 1474 1475 1476 1476 1476 1475 1474 1472 1470 1468 1466 1465 1463 1461
1421 1424 1427 1430 1434 1437 1441 1444 1446 1449 1452 1454 1457 1459 1461 1463 1464 1464 1465 1468 1469 1470 1472 1473 1474 1474 1475 1476 1476 1475 1474 1473 1471 1468 1466 1464 1461 1459
1420 1424 1427 1431 1435 1439 1442 1445 1447 1451 1454 1457 1459 1461 1463 1464 1465 1465 1466 1467 1468 1470 1471 1473 1474 1474 1475 1475 1476 1475 1474 1472 1471 1469 1467 1464 1461 1458
1420 1423 1427 1432 1436 1440 1443 1446 1449 1453 1455 1458 1460 1462 1464 1465 1466 1467 1468 1469 1470 1472 1472 1473 1474 1475 1475 1475 1476 1475 1474 1473 1471 1468 1466 1464 1461 1458
1418 1423 1427 1432 1437 1440 1444 1447 1451 1454 1456 1459 1461 1463 1465 1467 1469 1470 1472 1473 1474 1474 1474 1473 1474 1475 1476 1476 1476 1475 1474 1473 1471 1468 1466 1464 1461 1458
1416 1422 1427 1432 1437 1441 1445 1448 1451 1454 1457 1459 1462 1464 1466 1469 1470 1472 1473 1474 1475 1476 1476 1476 1475 1475 1475 1476 1476 1475 1474 1473 1470 1468 1466 1464 1461 1458
1416 1421 1426 1431 1436 1440 1444 1447 1451 1454 1457 1460 1462 1465 1467 1469 1471 1473 1474 1475 1476 1476 1477 1477 1477 1477 1476 1475 1475 1475 1474 1472 1471 1468 1466 1464 1461 1458
1415 1420 1425 1429 1434 1439 1443 1446 1450 1453 1456 1460 1463 1465 1467 1470 1471 1473 1474 1475 1476 1477 1477 1477 1477 1477 1476 1476 1474 1474 1473 1472 1470 1468 1466 1463 1461 1458
1414 1418 1423 1428 1433 1437 1441 1445 1449 1452 1456 1459 1462 1465 1468 1470 1472 1473 1475 1476 1477 1477 1478 1478 1477 1477 1477 1477 1476 1474 1472 1471 1469 1467 1465 1463 1460 1457
1411 1417 1422 1426 1431 1436 1440 1444 1448 1452 1455 1459 1462 1465 1467 1470 1472 1473 1474 1475 1476 1477 1478 1477 1476 1475 1475 1475 1475 1474 1472 1469 1467 1466 1464 1462 1460 1457
1409 1415 1420 1425 1430 1434 1439 1443 1447 1451 1454 1458 1461 1464 1467 1469 1471 1473 1474 1475 1476 1477 1477 1477 1475 1475 1476 1475 1474 1473 1471 1469 1466 1463 1461 1461 1459 1456
1407 1413 1418 1423 1428 1432 1437 1441 1445 1449 1453 1457 1460 1463 1466 1468 1470 1472 1473 1474 1475 1476 1476 1476 1476 1475 1474 1474 1472 1471 1469 1468 1466 1464 1461 1458 1457 1455